Vorticity
3 4 4 4 4 5 5 6 6 6 7 7 7 6 6 6 5 5 6 6 5 4 6 7 6 7 9 10 11 14 14 7 4 4 8 7 5 6 5 5 6 8 7 5 6 6 8 8 7 6 5 4 3 3 3 3 4 3 3 4 5 8 5 1 11 14 3 4 9 10 7 5 7 6 8 11 10 12 9 7 8 5 6 5 6 9 8 8
4 4 5 5 5 5 5 5 6 6 7 7 8 7 6 6 5 5 6 6 6 5 4 6 7 6 6 9 10 11 13 14 10 3 5 8 8 7 6 5 5 8 9 6 5 5 8 7 7 7 6 4 3 4 3 3 4 2 3 4 4 8 10 1 -1 10 7 4 5 5 5 6 8 6 8 11 9 13 12 9 11 9 9 5 4 9 9 7
6 5 5 6 6 6 6 6 6 6 6 7 8 8 7 6 5 5 5 6 6 6 5 5 6 7 6 6 9 11 11 14 14 6 5 7 7 7 8 9 7 6 8 7 5 6 7 6 6 6 6 5 4 4 2 3 4 4 2 3 6 -0 1 5 -2 -1 4 5 7 5 4 6 7 5 7 8 6 10 9 9 12 11 10 8 7 8 8 8
6 6 6 6 6 6 6 6 6 6 7 7 7 8 8 7 7 6 5 6 7 6 6 6 5 6 7 6 6 9 10 12 11 9 12 9 3 6 7 8 9 7 5 5 6 7 7 8 8 5 6 7 4 3 3 3 3 3 3 2 4 -1 5 14 1 -3 2 -2 2 5 2 7 9 3 7 9 8 9 5 9 11 9 9 8 9 9 10 10
7 7 7 6 6 6 6 6 6 6 6 7 7 7 8 8 7 7 7 6 6 7 7 6 6 5 6 7 6 5 7 12 13 12 15 12 4 4 5 6 8 7 5 5 5 5 6 9 10 6 6 8 5 5 5 3 2 2 4 4 4 4 5 14 11 4 4 -0 2 7 5 10 8 5 12 7 7 9 3 7 8 5 8 8 9 10 11 9
7 7 6 6 6 6 6 6 6 6 6 7 7 7 7 8 8 8 8 7 6 7 7 7 6 6 5 6 6 6 6 6 8 9 14 18 11 4 4 6 7 6 6 5 5 6 6 7 9 9 8 9 8 7 6 3 3 3 2 3 7 6 -9 -4 18 13 4 7 3 1 5 8 5 7 11 4 8 11 5 7 5 3 8 8 9 12 11 8
7 7 7 7 7 6 6 6 6 5 6 6 6 7 7 7 8 8 7 7 7 6 6 8 7 6 7 6 5 7 8 4 6 9 12 17 15 10 6 5 6 7 4 3 5 7 8 7 7 10 9 8 9 9 7 3 3 3 3 3 3 9 0 -9 8 12 4 8 3 -1 5 7 6 7 7 7 9 7 6 7 3 4 8 8 11 14 13 8
6 6 7 7 7 7 6 6 6 6 6 6 5 6 7 8 8 8 8 7 7 7 6 6 6 7 7 7 5 5 8 8 8 8 8 11 13 13 11 6 4 6 6 3 1 3 8 10 8 8 8 9 8 7 6 3 2 2 3 6 3 5 10 4 2 4 3 5 5 3 5 6 5 5 5 7 5 3 4 4 7 10 8 8 10 13 12 9
5 5 6 6 6 6 6 6 6 7 6 6 5 5 6 8 8 8 9 8 8 7 7 6 6 7 7 8 6 5 7 8 7 5 5 10 11 11 13 12 8 4 6 6 1 1 5 10 10 7 8 9 7 5 5 2 1 5 4 4 5 2 3 7 6 5 7 6 5 4 5 6 3 5 7 6 3 4 6 8 14 12 5 9 11 12 13 11
3 3 4 4 5 6 6 6 6 6 6 7 6 5 5 6 7 8 8 9 9 8 8 7 7 6 7 8 5 6 9 5 6 7 5 7 9 11 12 14 15 7 4 6 5 2 2 6 9 7 7 7 7 6 4 4 1 3 9 8 6 4 0 4 6 5 6 5 5 4 4 5 3 6 7 3 4 7 10 11 9 4 3 9 9 10 11 11
6 5 4 3 3 4 5 5 6 6 5 6 7 6 5 5 6 7 7 8 8 9 9 8 8 7 7 8 3 9 13 5 5 9 6 6 7 9 10 11 15 14 8 4 5 4 2 5 8 7 8 7 8 9 5 7 3 -5 2 11 8 6 2 3 7 6 5 5 4 3 5 5 2 4 4 2 5 8 10 10 4 1 4 5 8 11 8 10
8 8 8 7 5 4 4 4 4 5 6 6 6 6 6 5 5 5 6 7 7 8 8 8 9 7 8 8 5 11 11 5 6 8 7 8 6 7 10 11 12 16 14 7 4 5 4 4 7 8 7 7 7 9 8 7 7 0 -2 5 9 9 6 4 6 6 7 5 2 3 4 1 2 6 7 5 4 4 6 9 4 1 5 7 9 10 8 9
7 7 7 8 8 8 7 5 4 4 4 5 6 6 6 6 6 5 4 5 5 6 6 7 8 8 9 9 8 8 5 5 7 7 7 7 7 6 7 10 11 13 17 14 5 3 5 4 5 8 7 6 5 6 9 6 5 6 4 4 4 6 10 8 5 6 9 5 2 5 2 3 12 13 6 3 3 4 7 10 3 -0 6 9 6 7 10 11
7 7 7 7 7 8 8 8 8 6 4 4 5 5 6 6 6 6 5 4 4 4 4 5 6 8 9 9 9 7 6 6 6 7 9 7 6 7 5 7 10 11 14 18 13 4 3 4 4 7 7 6 6 5 7 9 6 3 5 6 3 6 13 10 5 7 8 5 2 2 1 5 10 10 8 4 4 6 9 12 4 0 6 6 3 6 11 11
9 9 8 8 8 8 8 8 8 9 8 6 4 4 4 6 7 6 6 5 4 4 4 3 4 6 7 7 7 8 9 5 4 6 8 7 6 6 6 6 7 11 12 14 18 12 3 3 3 4 7 6 6 5 5 9 9 5 6 5 5 10 12 10 12 12 7 7 6 2 4 4 3 16 20 6 5 9 9 11 4 -0 7 8 5 7 10 9
11 11 10 10 10 9 9 9 8 8 9 9 8 6 4 4 5 6 7 6 5 4 3 3 3 3 5 5 6 9 10 7 5 6 6 8 7 5 5 5 5 8 11 12 16 18 10 4 3 3 5 6 6 5 4 7 7 6 8 8 6 8 11 12 11 10 8 4 2 3 4 3 8 19 13 -5 1 11 5 7 5 -1 4 7 4 5 8 9
11 11 11 11 11 11 11 11 10 10 9 9 9 8 8 6 4 5 6 7 7 5 4 3 3 3 3 4 5 5 7 9 8 7 6 7 8 8 6 4 5 6 8 10 11 16 16 10 6 4 3 4 6 6 4 8 10 5 6 10 7 7 11 8 4 13 21 9 2 8 2 -3 7 11 5 -1 2 8 5 4 5 1 6 10 5 3 8 10
9 10 10 11 11 11 12 12 12 11 11 11 10 10 9 9 7 5 4 5 7 7 5 4 3 3 3 3 4 4 4 7 8 8 7 6 6 7 8 6 6 6 4 6 8 11 15 15 11 6 4 4 5 5 3 8 13 7 2 4 6 6 9 8 4 9 17 11 7 14 8 0 3 3 5 3 -5 4 11 6 4 5 10 11 3 4 9 8
7 8 7 8 10 9 10 12 12 12 12 12 13 12 10 9 10 8 6 5 4 6 7 6 5 5 3 3 4 4 5 6 6 8 7 8 8 6 7 7 7 8 6 5 7 8 11 14 13 11 11 9 6 4 1 3 9 10 4 2 3 4 8 11 5 2 9 14 11 6 5 5 3 -1 4 5 -0 10 16 10 6 4 8 8 4 7 8 7
5 6 6 6 7 7 8 8 10 12 12 12 12 14 14 11 11 10 9 7 5 4 5 6 8 6 4 4 4 3 4 5 5 6 6 7 8 7 6 6 6 8 9 7 6 7 9 9 10 15 16 13 8 4 2 2 5 9 7 4 5 5 7 8 5 8 9 7 13 9 2 5 4 5 11 6 1 5 5 5 5 2 5 5 3 6 7 11
5 6 6 5 5 6 6 6 6 8 8 10 11 12 14 12 13 13 10 9 9 7 4 5 7 7 6 5 4 4 3 3 5 5 6 5 5 7 7 5 6 7 9 8 4 5 5 5 11 17 17 14 12 8 4 5 5 6 6 3 6 7 6 7 5 10 5 -5 8 13 4 2 -3 5 8 -10 -9 8 6 3 6 6 9 6 2 6 6 7
7 7 7 7 6 5 6 6 5 6 6 6 7 9 11 12 13 15 14 10 11 12 8 4 5 7 8 7 5 5 4 4 5 5 6 6 4 6 8 7 5 6 9 8 5 6 5 8 11 12 15 15 14 12 6 5 5 6 5 -1 1 5 7 12 8 8 7 4 9 8 7 9 3 7 7 -8 -2 12 3 -3 5 7 7 8 6 8 8 3
10 10 11 11 10 8 8 8 6 5 6 5 5 5 6 9 11 13 17 13 10 15 14 8 8 7 5 8 8 4 5 5 5 4 5 6 5 6 8 9 8 6 7 6 6 8 6 9 12 11 14 15 16 17 11 8 6 5 6 1 -0 2 4 10 8 4 1 -3 4 8 7 9 9 9 9 8 6 -0 -5 -1 15 19 8 8 10 7 9 8
11 10 11 11 12 13 12 12 12 9 8 7 7 6 4 4 7 9 14 16 11 13 18 14 10 9 6 9 11 7 6 5 4 4 3 6 7 5 5 6 8 8 6 6 6 8 6 4 8 10 10 13 17 19 15 11 8 6 5 4 3 1 1 5 6 8 6 -2 1 9 6 4 10 10 4 9 7 0 4 2 6 18 8 2 8 7 8 9
14 13 11 8 8 13 13 10 12 13 12 11 9 8 7 4 4 3 7 15 15 9 15 17 13 12 10 9 9 7 8 6 4 4 2 5 6 5 6 5 5 6 6 7 5 7 8 3 3 6 7 9 11 16 19 13 10 9 6 5 7 3 -2 3 6 8 10 6 4 5 3 3 13 16 8 8 5 -4 6 7 -4 5 10 4 6 8 7 7
17 17 17 12 8 13 15 11 11 12 14 18 15 10 10 7 5 5 2 6 11 8 9 15 15 12 11 13 13 9 8 8 7 6 4 4 6 6 5 4 5 6 7 9 8 6 6 5 4 2 6 10 9 12 17 15 10 8 7 6 8 7 -1 -2 1 3 5 5 4 5 4 2 7 12 9 10 5 -6 9 20 2 4 21 13 3 7 7 3
18 19 21 20 15 13 14 15 16 13 10 15 19 17 16 12 7 7 6 4 7 6 4 8 13 12 11 15 16 11 8 8 9 8 6 5 6 6 4 3 5 5 5 6 7 8 7 7 6 3 5 8 7 10 14 16 12 8 9 7 6 10 4 -5 -8 -3 6 5 1 7 11 2 -3 2 8 9 7 3 8 8 -4 1 15 6 -3 4 8 5
19 21 22 25 25 20 18 18 20 22 20 16 16 17 20 20 14 11 12 8 9 13 9 6 8 7 8 10 15 18 15 11 9 9 11 9 6 7 5 4 5 6 6 4 5 10 11 8 6 5 5 5 6 9 12 13 13 11 10 7 7 9 7 4 -6 -12 -0 8 7 9 10 -0 -6 5 13 6 4 6 6 11 11 -1 -3 6 9 7 4 5
20 21 21 25 29 28 28 25 20 23 26 22 20 19 18 21 22 19 15 7 11 24 20 12 14 10 7 6 6 12 17 16 13 8 10 10 7 7 6 5 7 6 4 5 6 6 9 10 9 7 6 6 7 8 10 12 13 15 10 6 9 9 8 10 4 -8 -10 -2 1 1 6 6 3 12 18 13 11 8 5 19 26 3 -5 18 25 16 11 7
15 16 16 18 20 24 29 29 27 27 27 28 27 26 20 20 24 26 24 13 12 26 23 16 19 14 11 13 8 6 9 14 17 14 10 9 8 7 7 7 7 7 5 5 6 5 6 7 7 9 7 5 6 6 8 10 12 15 11 7 7 6 8 8 11 9 -7 -11 -8 -13 -3 2 -11 -12 3 12 12 5 1 11 21 12 3 11 15 12 9 0
9 10 9 9 8 13 17 22 28 30 33 34 34 36 27 21 24 26 31 25 15 25 27 13 6 1 3 9 10 9 6 7 12 14 11 9 7 4 3 4 3 5 6 3 4 6 6 5 4 7 7 5 6 5 6 7 8 12 12 10 7 8 12 7 9 12 -3 2 11 -2 -4 -7 -20 -16 -3 0 -4 -2 9 8 8 7 -5 -6 2 2 4 3
7 7 6 5 5 10 11 12 14 17 27 32 36 44 35 28 28 25 35 36 23 28 25 8 4 4 2 1 2 7 8 9 10 10 13 12 11 9 3 4 5 2 4 5 5 4 3 6 7 7 6 7 7 5 5 4 4 9 11 11 11 8 9 8 8 4 -5 6 17 13 4 -14 -18 1 9 3 -6 -0 19 14 2 -2 -8 -3 3 -1 6 12
7 6 6 7 10 12 7 4 5 11 21 24 33 46 41 38 35 31 43 35 20 29 21 9 15 10 5 7 8 8 4 7 11 9 13 12 12 13 8 10 9 2 4 9 6 4 4 5 7 8 6 5 8 6 4 4 4 7 8 10 12 3 0 11 15 8 4 10 14 15 7 -10 -5 16 18 11 -0 -2 15 18 10 5 6 23 27 13 9 9
10 7 9 12 14 11 3 -1 -1 5 12 9 29 54 48 44 46 47 58 36 10 20 16 14 24 13 11 14 12 16 10 6 13 12 11 11 8 10 8 8 9 5 7 10 7 7 6 1 1 7 9 5 7 8 6 5 4 6 6 6 10 5 0 8 13 9 7 9 11 10 3 -2 7 16 15 14 8 4 10 10 9 9 10 18 17 10 10 9
13 10 12 12 11 7 4 3 -3 1 6 -3 24 66 57 46 49 35 37 38 23 20 11 10 20 16 18 18 14 25 23 14 17 14 12 12 9 10 10 8 9 6 4 5 7 8 5 4 5 8 9 7 7 8 8 7 5 6 7 4 5 7 6 5 6 12 13 10 11 8 4 7 8 7 11 17 15 13 14 10 7 5 -4 -15 -15 0 16 11
11 10 10 7 8 9 8 8 3 4 6 -3 28 75 58 36 30 -6 -4 38 39 25 21 13 15 18 20 28 33 32 32 33 31 25 22 18 13 14 13 13 13 9 7 4 5 9 8 5 5 4 6 7 7 6 7 6 5 7 6 4 5 7 11 10 5 12 21 21 19 12 6 10 12 14 16 18 18 15 15 17 18 14 -3 -12 -2 15 25 16
10 13 11 6 6 11 11 9 9 9 7 6 32 64 45 21 17 -12 -5 42 35 19 30 13 2 9 7 20 33 22 23 31 25 28 37 30 20 18 13 13 14 10 9 8 6 11 10 7 10 7 2 5 7 7 10 7 2 4 3 4 11 7 6 10 4 1 8 10 15 22 22 15 11 18 22 23 27 26 20 16 24 28 8 -3 10 14 19 25
17 17 12 9 9 14 14 9 14 13 9 13 23 40 38 27 25 6 2 27 20 13 31 17 -2 -1 -2 12 21 9 10 10 -4 7 34 39 32 32 29 24 23 21 13 5 5 10 7 10 28 30 10 4 8 5 9 10 3 4 6 6 12 8 -1 4 4 -3 0 4 4 9 14 9 3 8 15 19 23 23 21 15 18 29 16 -3 4 8 15 25
19 16 13 17 17 17 14 12 20 15 7 15 17 25 36 31 28 20 11 20 20 12 18 19 9 -3 -1 18 21 8 9 10 -5 -14 5 26 24 23 28 24 24 30 26 17 10 4 -0 -5 9 33 31 17 17 13 8 11 7 2 5 5 8 11 5 4 7 2 1 7 11 11 8 2 3 3 -2 3 14 13 11 14 13 17 14 3 2 7 12 15
12 12 13 16 20 21 17 15 19 14 8 16 16 14 24 28 25 20 14 18 28 30 29 30 19 -3 0 24 23 10 7 10 10 -4 -6 11 10 7 21 22 17 17 15 19 10 -7 2 2 -15 6 37 33 27 21 6 6 10 1 -0 2 1 7 10 6 7 9 3 -5 -4 13 22 19 25 28 16 13 26 22 7 11 20 16 9 7 3 3 6 7
5 9 7 13 23 22 17 15 16 15 10 9 13 11 16 31 33 23 15 8 11 25 37 44 35 6 3 21 17 11 11 3 8 11 -0 -2 8 20 25 17 19 20 11 17 17 -9 -9 13 3 -7 16 31 29 23 4 -2 11 10 3 5 2 1 7 7 4 8 12 1 -13 -13 -1 11 17 18 18 16 21 26 13 7 20 21 12 8 1 -2 6 11
2 8 6 19 31 17 10 18 19 17 9 4 12 12 9 23 31 26 25 22 14 15 24 38 45 28 12 13 8 10 20 8 -1 9 -2 -20 -3 26 27 13 17 26 19 14 28 14 -25 -12 25 15 2 17 26 25 15 -1 4 16 11 8 9 1 0 8 7 4 8 10 5 -12 -19 1 12 -0 -1 1 4 17 15 5 15 22 14 12 5 -2 8 18
3 14 12 25 33 13 8 24 26 15 8 9 10 7 9 21 29 23 20 22 23 24 27 29 45 53 30 8 1 8 25 17 -2 8 5 -15 -3 12 9 14 15 16 21 9 16 36 -2 -29 9 16 -7 4 18 20 27 16 5 14 15 5 8 7 2 5 6 6 9 9 12 2 -17 -4 14 2 -6 -2 5 20 15 1 11 18 10 7 5 2 5 12
8 19 17 25 26 8 8 27 30 12 4 13 10 3 12 20 24 26 20 18 14 17 28 24 33 62 56 20 -9 -9 21 21 -3 6 6 -4 23 19 -14 1 15 9 22 11 -6 22 17 -22 -12 7 -8 -2 13 14 28 32 11 10 17 6 4 8 8 11 8 7 12 8 10 11 -5 -4 5 -2 -2 -2 -1 17 23 12 10 12 12 13 7 4 6 8
13 18 20 28 19 3 8 23 29 16 6 13 10 4 12 13 13 21 25 30 21 9 16 16 17 45 69 51 -7 -31 12 20 -10 3 2 -7 37 38 -14 -11 9 4 16 14 -4 13 22 -7 -11 6 -4 -10 4 5 15 32 15 1 12 12 7 5 4 14 14 7 9 6 6 11 4 5 7 -0 6 7 -2 12 29 26 18 10 9 10 4 4 7 5
22 22 23 30 17 5 11 15 24 25 11 11 10 5 10 9 5 11 20 34 35 19 13 13 11 21 56 73 18 -32 -8 2 -12 7 3 -4 39 42 1 -3 3 3 12 11 2 11 23 7 -10 -5 -10 -16 2 5 10 38 36 11 8 11 10 5 -1 6 9 5 10 9 7 13 10 10 14 8 5 7 7 19 26 23 20 15 5 1 1 7 7 2
30 26 21 25 18 16 18 12 23 30 13 11 14 6 6 7 4 7 13 25 35 33 24 19 16 12 32 70 51 -9 -29 -25 -8 15 1 3 40 32 9 12 2 -6 4 9 8 9 17 18 5 0 -8 -22 -5 7 0 16 32 27 23 19 17 14 -1 -3 6 6 9 8 11 18 12 8 19 17 6 6 8 10 19 27 22 10 7 7 8 10 7 3
28 22 17 18 14 23 25 12 22 32 18 14 16 6 5 8 4 4 8 17 27 30 27 24 25 18 16 48 64 24 -17 -23 -6 6 -1 14 39 21 8 18 10 -3 -3 2 11 11 12 19 12 4 -2 -16 -7 11 7 4 8 17 27 23 22 25 10 -3 2 6 5 6 8 10 -2 -12 -2 4 2 11 13 -1 3 19 10 -3 5 6 2 6 7 4
22 14 14 14 13 26 29 13 19 30 21 17 16 8 7 6 4 7 7 11 17 20 24 26 29 27 16 32 56 35 8 14 12 -8 -8 18 33 20 12 19 21 17 9 -0 8 13 10 14 11 -1 -3 -3 -7 -3 10 17 7 2 15 22 19 23 23 14 7 5 10 10 2 4 10 -1 -3 9 14 15 17 5 -3 5 6 8 19 13 3 7 5 1
16 6 10 17 20 29 27 15 20 27 20 18 15 7 6 5 5 10 7 8 11 14 22 25 27 32 23 27 45 26 10 42 38 -14 -26 5 24 21 21 26 25 19 12 5 9 13 4 5 15 4 -8 -7 -12 -18 -6 10 10 0 1 13 19 18 23 25 14 1 2 9 1 -4 11 15 5 14 23 15 9 4 -4 -1 9 14 16 17 16 12 4 4
10 2 8 20 26 30 27 17 19 25 21 20 14 3 2 4 5 10 9 9 10 8 15 22 25 35 27 21 35 23 11 47 53 -2 -30 -11 10 14 19 38 40 18 9 13 9 7 3 3 13 10 -4 -8 -11 -15 -9 4 11 0 -15 -8 6 11 16 23 26 19 3 6 12 -1 -4 7 -1 -5 12 19 10 4 -3 -7 0 4 4 14 21 11 2 7
7 6 8 17 24 32 31 18 16 24 22 16 10 4 5 6 8 12 11 10 9 5 11 21 24 32 29 19 27 25 16 38 54 24 -15 -26 -9 2 5 32 52 29 10 15 12 7 7 4 7 10 3 -2 -6 -15 -12 6 12 -6 -14 -3 -5 -6 11 16 18 28 19 6 13 11 3 7 -3 -18 -7 6 0 -1 1 -3 -2 4 6 14 23 19 8 2
Height
5876 5876 5875 5875 5874 5874 5873 5873 5872 5872 5871 5871 5871 5871 5870 5870 5870 5869 5869 5869 5869 5868 5868 5868 5868 5869 5869 5869 5869 5870 5870 5871 5872 5873 5873 5874 5875 5875 5876 5877 5878 5879 5879 5880 5882 5884 5885 5885 5885 5886 5886 5887 5887 5888 5889 5890 5891 5891 5893 5894 5894 5894 5895 5895 5895 5895 5896 5896 5897 5898 5898 5898 5898 5898 5897 5896 5896 5895 5895 5894 5895 5895 5896 5898 5898 5898 5898 5899
5874 5874 5873 5873 5872 5872 5871 5871 5870 5870 5870 5869 5869 5869 5869 5868 5868 5868 5868 5868 5867 5867 5867 5867 5867 5867 5867 5868 5868 5868 5869 5870 5871 5871 5871 5873 5874 5874 5875 5876 5877 5878 5878 5879 5881 5882 5883 5884 5884 5885 5886 5886 5887 5888 5888 5889 5890 5891 5893 5894 5893 5894 5895 5895 5896 5896 5896 5896 5897 5898 5898 5898 5898 5898 5897 5896 5895 5895 5894 5894 5894 5896 5897 5898 5898 5898 5898 5898
5872 5871 5871 5870 5870 5869 5869 5868 5868 5868 5867 5867 5867 5866 5866 5866 5866 5866 5866 5866 5866 5865 5865 5865 5866 5866 5866 5866 5867 5867 5868 5868 5869 5869 5870 5872 5872 5872 5874 5875 5876 5877 5877 5878 5879 5880 5881 5882 5883 5884 5885 5885 5886 5887 5887 5888 5890 5891 5892 5893 5893 5894 5895 5895 5896 5897 5896 5894 5896 5898 5899 5898 5898 5898 5896 5895 5895 5894 5893 5893 5894 5896 5897 5897 5897 5897 5898 5898
5870 5869 5868 5868 5868 5867 5867 5866 5866 5865 5865 5865 5864 5864 5864 5864 5864 5864 5865 5865 5864 5864 5863 5864 5864 5864 5864 5865 5865 5866 5866 5867 5868 5867 5869 5870 5870 5871 5872 5873 5874 5875 5876 5876 5877 5878 5880 5881 5882 5883 5884 5885 5885 5886 5887 5888 5889 5890 5891 5892 5893 5894 5895 5894 5894 5897 5896 5893 5896 5898 5898 5898 5898 5898 5896 5896 5895 5894 5894 5893 5894 5895 5896 5896 5897 5897 5897 5898
5867 5867 5866 5866 5865 5865 5864 5864 5863 5863 5863 5862 5862 5861 5861 5861 5862 5862 5863 5862 5862 5862 5862 5862 5862 5863 5863 5863 5863 5864 5864 5866 5866 5865 5867 5868 5868 5870 5871 5872 5873 5874 5874 5874 5875 5876 5878 5880 5881 5881 5883 5884 5884 5885 5886 5887 5888 5889 5890 5891 5893 5894 5894 5894 5894 5896 5895 5895 5897 5898 5898 5898 5898 5897 5897 5897 5895 5894 5894 5893 5894 5895 5896 5896 5897 5897 5897 5897
5865 5865 5864 5863 5863 5862 5862 5861 5861 5860 5860 5860 5860 5859 5859 5859 5859 5859 5860 5860 5860 5860 5860 5860 5860 5861 5861 5861 5862 5862 5863 5864 5864 5864 5865 5866 5867 5867 5869 5870 5871 5872 5873 5873 5874 5875 5877 5878 5880 5881 5882 5883 5884 5885 5885 5886 5887 5889 5889 5890 5892 5893 5894 5894 5895 5896 5895 5895 5897 5898 5898 5897 5898 5897 5896 5896 5895 5895 5894 5893 5894 5895 5896 5897 5897 5897 5897 5897
5863 5862 5862 5861 5861 5860 5859 5859 5858 5858 5858 5857 5857 5857 5856 5856 5856 5857 5857 5857 5858 5858 5858 5858 5859 5859 5859 5859 5860 5860 5861 5862 5862 5863 5864 5864 5865 5866 5867 5868 5869 5871 5872 5872 5873 5874 5875 5877 5879 5880 5881 5882 5883 5884 5884 5885 5886 5888 5889 5889 5891 5892 5893 5894 5895 5896 5895 5894 5896 5897 5898 5897 5897 5897 5896 5896 5895 5895 5894 5893 5894 5895 5896 5896 5897 5897 5898 5897
5860 5860 5859 5859 5858 5858 5857 5857 5856 5856 5855 5855 5855 5854 5854 5854 5854 5854 5854 5854 5855 5855 5855 5855 5856 5857 5857 5857 5858 5858 5859 5861 5861 5860 5861 5862 5863 5863 5864 5866 5867 5869 5870 5871 5872 5872 5874 5875 5877 5879 5880 5881 5882 5883 5883 5884 5885 5886 5888 5888 5889 5890 5892 5893 5894 5895 5894 5894 5896 5897 5897 5898 5897 5896 5896 5896 5895 5894 5893 5893 5893 5895 5896 5895 5896 5897 5898 5898
5857 5857 5856 5856 5856 5855 5854 5854 5854 5853 5853 5853 5852 5852 5851 5851 5851 5851 5851 5851 5852 5852 5852 5853 5854 5854 5855 5855 5856 5856 5857 5859 5859 5858 5859 5860 5861 5861 5862 5863 5865 5867 5868 5869 5870 5870 5872 5874 5875 5877 5879 5879 5880 5880 5881 5882 5883 5885 5887 5887 5888 5889 5890 5891 5892 5892 5893 5894 5895 5896 5897 5897 5897 5897 5896 5896 5895 5894 5892 5892 5892 5893 5894 5895 5897 5897 5897 5898
5854 5853 5853 5853 5852 5852 5851 5851 5851 5850 5850 5850 5850 5849 5848 5848 5848 5848 5849 5848 5849 5849 5849 5850 5851 5852 5852 5853 5854 5854 5854 5856 5856 5856 5857 5858 5859 5859 5860 5861 5863 5864 5865 5866 5867 5869 5871 5872 5873 5874 5875 5876 5877 5879 5879 5880 5882 5884 5884 5885 5887 5888 5889 5889 5890 5891 5892 5894 5895 5896 5897 5897 5897 5897 5896 5895 5895 5894 5892 5892 5892 5892 5893 5895 5896 5897 5897 5897
5850 5849 5849 5849 5849 5848 5847 5847 5847 5847 5847 5847 5847 5846 5846 5846 5846 5846 5846 5846 5846 5846 5846 5847 5848 5849 5850 5851 5853 5851 5851 5854 5855 5854 5855 5856 5857 5857 5858 5859 5860 5862 5863 5864 5865 5867 5868 5870 5871 5871 5873 5875 5876 5878 5878 5879 5881 5881 5882 5884 5886 5887 5888 5889 5890 5891 5892 5893 5894 5895 5896 5896 5897 5897 5896 5894 5894 5894 5892 5892 5892 5892 5893 5894 5895 5896 5896 5896
5846 5845 5845 5845 5845 5844 5843 5843 5843 5843 5843 5843 5843 5843 5843 5843 5843 5843 5843 5843 5843 5843 5843 5844 5845 5846 5847 5850 5850 5847 5849 5852 5852 5852 5852 5854 5854 5855 5856 5857 5858 5859 5860 5862 5863 5864 5866 5867 5868 5869 5872 5874 5874 5876 5877 5878 5879 5880 5881 5883 5885 5886 5887 5888 5889 5890 5891 5893 5893 5894 5895 5895 5896 5896 5895 5894 5893 5893 5892 5892 5892 5891 5892 5893 5894 5896 5896 5896
5841 5841 5840 5840 5840 5840 5839 5839 5839 5839 5839 5839 5839 5839 5839 5839 5839 5839 5839 5840 5840 5840 5840 5840 5842 5842 5844 5847 5845 5844 5848 5850 5850 5850 5850 5851 5852 5853 5854 5855 5856 5857 5858 5859 5861 5862 5863 5864 5866 5868 5870 5871 5872 5874 5874 5875 5877 5878 5880 5882 5883 5884 5886 5888 5888 5889 5890 5892 5893 5894 5894 5895 5895 5895 5895 5894 5893 5892 5892 5892 5892 5892 5892 5892 5893 5895 5895 5895
5836 5836 5835 5835 5835 5835 5834 5834 5834 5834 5834 5835 5835 5835 5835 5835 5835 5836 5836 5837 5837 5837 5837 5838 5839 5839 5842 5844 5840 5842 5846 5846 5847 5848 5848 5848 5849 5851 5852 5853 5854 5855 5856 5857 5858 5859 5861 5862 5863 5865 5867 5868 5870 5871 5871 5873 5875 5876 5878 5880 5881 5883 5886 5887 5887 5888 5889 5891 5892 5892 5893 5894 5895 5895 5894 5894 5892 5892 5891 5891 5892 5892 5893 5893 5893 5894 5894 5894
5831 5830 5830 5829 5829 5829 5829 5829 5829 5829 5829 5829 5830 5830 5831 5830 5831 5831 5832 5833 5833 5834 5834 5834 5835 5836 5839 5840 5837 5840 5843 5843 5845 5845 5845 5846 5846 5848 5850 5850 5851 5852 5853 5854 5855 5857 5858 5859 5861 5862 5865 5866 5868 5868 5870 5872 5873 5875 5876 5877 5880 5883 5885 5886 5886 5887 5888 5889 5890 5891 5892 5893 5895 5896 5894 5892 5892 5892 5891 5890 5891 5892 5892 5893 5893 5894 5893 5894
5826 5825 5825 5824 5824 5824 5824 5824 5824 5823 5823 5824 5824 5825 5826 5826 5826 5827 5827 5828 5829 5830 5830 5831 5832 5833 5836 5837 5835 5837 5839 5840 5841 5841 5842 5844 5844 5845 5847 5848 5849 5850 5851 5851 5853 5854 5855 5856 5858 5860 5862 5863 5865 5867 5868 5870 5872 5873 5874 5876 5879 5882 5884 5885 5886 5887 5886 5887 5888 5889 5891 5892 5894 5895 5893 5891 5891 5891 5890 5890 5891 5892 5892 5892 5893 5894 5894 5894
5821 5820 5819 5819 5818 5818 5818 5818 5818 5818 5818 5818 5818 5819 5820 5820 5820 5821 5822 5823 5824 5825 5826 5827 5828 5829 5832 5833 5833 5832 5834 5836 5837 5838 5840 5841 5842 5842 5843 5845 5846 5847 5848 5848 5850 5851 5852 5854 5855 5857 5859 5861 5863 5865 5866 5869 5871 5873 5874 5876 5878 5880 5882 5883 5886 5887 5886 5886 5886 5888 5889 5891 5893 5893 5891 5891 5890 5890 5890 5890 5891 5891 5893 5893 5893 5894 5895 5894
5816 5815 5814 5813 5813 5813 5812 5812 5812 5812 5812 5812 5812 5813 5814 5814 5814 5815 5817 5818 5819 5820 5821 5822 5823 5825 5827 5829 5829 5829 5830 5833 5834 5835 5837 5837 5838 5839 5841 5842 5843 5844 5845 5845 5847 5848 5849 5851 5852 5853 5855 5858 5861 5862 5864 5869 5871 5872 5873 5875 5877 5879 5880 5882 5886 5887 5886 5886 5885 5886 5887 5889 5892 5891 5889 5890 5890 5888 5889 5890 5890 5891 5893 5894 5894 5895 5896 5894
5812 5811 5809 5808 5807 5807 5806 5806 5806 5806 5806 5806 5806 5806 5808 5809 5808 5809 5812 5813 5813 5815 5815 5816 5819 5822 5822 5825 5826 5825 5827 5829 5831 5832 5833 5834 5835 5836 5838 5839 5839 5841 5842 5843 5845 5846 5847 5847 5848 5849 5853 5856 5859 5861 5865 5869 5870 5870 5872 5874 5876 5878 5879 5882 5887 5888 5886 5885 5884 5885 5886 5887 5891 5890 5888 5888 5889 5888 5887 5888 5890 5892 5894 5893 5894 5895 5895 5894
5806 5805 5804 5802 5802 5801 5800 5800 5800 5799 5800 5800 5800 5800 5800 5803 5802 5802 5806 5807 5807 5809 5809 5810 5815 5818 5817 5820 5821 5820 5823 5825 5826 5828 5829 5830 5831 5832 5834 5835 5836 5837 5839 5841 5842 5843 5843 5843 5845 5850 5853 5856 5858 5860 5863 5866 5866 5868 5870 5872 5874 5876 5877 5881 5885 5886 5885 5885 5884 5885 5886 5887 5890 5890 5886 5886 5888 5888 5887 5885 5885 5890 5893 5893 5893 5894 5892 5892
5800 5799 5798 5796 5795 5795 5794 5793 5793 5793 5793 5793 5794 5794 5793 5795 5795 5795 5799 5801 5801 5802 5804 5805 5809 5813 5813 5813 5816 5817 5818 5820 5822 5824 5825 5826 5827 5828 5831 5832 5833 5835 5838 5839 5839 5839 5838 5841 5846 5850 5851 5852 5854 5857 5859 5861 5863 5865 5867 5869 5873 5875 5876 5879 5883 5885 5884 5883 5884 5885 5885 5886 5888 5890 5888 5885 5885 5887 5888 5886 5883 5885 5891 5891 5891 5892 5892 5891
5794 5793 5791 5789 5788 5788 5787 5786 5786 5786 5786 5786 5787 5787 5787 5787 5788 5789 5791 5795 5797 5796 5797 5800 5801 5807 5809 5807 5810 5812 5813 5816 5817 5819 5821 5822 5823 5825 5828 5829 5830 5833 5835 5834 5834 5834 5836 5842 5847 5847 5847 5848 5849 5852 5855 5857 5860 5862 5863 5866 5870 5873 5876 5877 5880 5885 5884 5882 5884 5885 5884 5884 5885 5887 5889 5888 5885 5884 5887 5889 5884 5882 5887 5891 5890 5890 5891 5892
5787 5786 5784 5783 5781 5781 5781 5778 5777 5778 5779 5779 5779 5780 5780 5780 5780 5782 5783 5787 5792 5790 5791 5795 5796 5800 5803 5802 5803 5806 5809 5812 5813 5814 5816 5817 5820 5822 5824 5825 5827 5829 5830 5830 5831 5833 5837 5842 5843 5842 5843 5844 5845 5848 5851 5853 5855 5857 5860 5862 5866 5870 5874 5877 5879 5883 5883 5882 5884 5884 5883 5884 5885 5886 5888 5890 5888 5885 5885 5887 5886 5882 5883 5889 5890 5890 5891 5892
5780 5779 5777 5776 5773 5773 5773 5771 5769 5769 5770 5771 5772 5772 5772 5773 5773 5774 5776 5778 5785 5787 5785 5788 5790 5792 5797 5797 5796 5799 5804 5807 5806 5807 5809 5813 5817 5818 5819 5822 5824 5825 5826 5827 5829 5831 5835 5839 5837 5837 5839 5840 5842 5844 5847 5849 5852 5854 5857 5859 5864 5867 5871 5875 5879 5882 5882 5880 5881 5882 5882 5882 5883 5885 5886 5889 5890 5888 5885 5883 5883 5882 5881 5886 5890 5890 5891 5891
5771 5770 5769 5768 5766 5764 5765 5764 5762 5761 5761 5762 5763 5763 5764 5766 5765 5767 5770 5770 5777 5783 5780 5780 5783 5787 5790 5788 5788 5793 5797 5800 5801 5801 5804 5809 5812 5814 5815 5817 5819 5820 5822 5825 5826 5828 5833 5834 5832 5833 5835 5837 5839 5841 5843 5846 5849 5851 5853 5857 5861 5864 5867 5871 5875 5878 5880 5879 5878 5879 5880 5879 5879 5881 5883 5887 5888 5888 5887 5882 5880 5880 5879 5883 5888 5889 5889 5890
5762 5760 5759 5759 5757 5755 5755 5754 5753 5752 5753 5752 5752 5754 5755 5756 5758 5759 5762 5764 5770 5775 5775 5775 5776 5779 5781 5780 5784 5788 5789 5794 5797 5796 5799 5804 5807 5809 5809 5811 5814 5816 5818 5822 5822 5824 5828 5828 5829 5831 5833 5835 5836 5837 5840 5843 5845 5847 5851 5855 5859 5860 5864 5867 5871 5874 5876 5877 5878 5877 5876 5877 5878 5878 5880 5884 5885 5886 5887 5884 5880 5878 5877 5880 5885 5887 5887 5888
5754 5751 5750 5748 5747 5746 5745 5744 5743 5742 5742 5742 5743 5745 5745 5747 5749 5752 5754 5757 5762 5764 5766 5769 5769 5771 5773 5773 5777 5779 5782 5789 5792 5791 5793 5798 5802 5803 5804 5806 5810 5813 5815 5816 5817 5820 5824 5825 5826 5829 5831 5832 5833 5835 5838 5841 5842 5845 5849 5853 5855 5857 5859 5862 5866 5870 5872 5876 5877 5876 5874 5874 5875 5876 5877 5879 5882 5884 5885 5885 5882 5876 5874 5878 5883 5885 5887 5888
5747 5744 5742 5739 5737 5736 5734 5734 5733 5731 5730 5731 5732 5734 5736 5737 5740 5744 5746 5749 5753 5753 5755 5759 5761 5764 5764 5766 5770 5773 5778 5782 5784 5787 5788 5791 5796 5798 5799 5802 5806 5809 5811 5811 5814 5819 5822 5823 5824 5826 5827 5829 5831 5834 5836 5838 5839 5843 5847 5848 5850 5853 5855 5858 5861 5864 5868 5871 5871 5873 5875 5872 5871 5873 5874 5875 5877 5880 5881 5884 5884 5878 5872 5875 5879 5883 5885 5887
5741 5738 5736 5732 5730 5727 5725 5724 5723 5722 5721 5720 5721 5722 5725 5727 5730 5734 5735 5742 5746 5742 5744 5748 5751 5755 5756 5758 5763 5767 5771 5773 5776 5781 5780 5782 5790 5792 5794 5798 5801 5804 5806 5807 5810 5815 5817 5819 5820 5822 5824 5826 5829 5832 5833 5835 5837 5841 5844 5844 5847 5850 5852 5855 5857 5858 5861 5861 5860 5867 5872 5872 5870 5870 5871 5873 5873 5876 5879 5881 5883 5880 5873 5873 5876 5880 5883 5884
5736 5733 5730 5728 5725 5721 5719 5715 5713 5712 5710 5710 5710 5710 5713 5715 5719 5722 5724 5734 5737 5731 5733 5736 5737 5744 5749 5751 5755 5759 5763 5765 5769 5774 5773 5775 5782 5786 5789 5793 5795 5797 5801 5802 5804 5809 5812 5814 5815 5817 5820 5823 5827 5829 5830 5832 5836 5838 5840 5841 5844 5846 5848 5851 5853 5856 5856 5851 5853 5861 5865 5866 5865 5865 5869 5872 5872 5874 5878 5880 5882 5879 5872 5871 5874 5878 5883 5883
5732 5728 5725 5723 5720 5717 5714 5710 5706 5704 5701 5701 5699 5699 5702 5704 5707 5711 5714 5723 5724 5719 5722 5722 5724 5735 5739 5740 5745 5750 5755 5758 5761 5765 5765 5767 5773 5778 5781 5783 5786 5789 5792 5795 5798 5802 5806 5807 5809 5812 5816 5820 5823 5825 5827 5829 5832 5834 5835 5838 5840 5842 5845 5847 5849 5851 5848 5846 5851 5857 5859 5859 5858 5860 5867 5870 5870 5871 5874 5878 5880 5876 5871 5871 5872 5875 5880 5883
5728 5724 5720 5717 5715 5712 5709 5705 5703 5700 5696 5693 5690 5690 5691 5692 5696 5701 5705 5712 5710 5708 5711 5711 5717 5727 5727 5731 5738 5742 5747 5750 5754 5756 5756 5760 5765 5770 5774 5776 5780 5783 5786 5791 5793 5797 5802 5804 5807 5810 5813 5817 5819 5821 5823 5825 5826 5828 5831 5833 5836 5839 5840 5840 5842 5844 5843 5845 5850 5854 5855 5854 5852 5857 5864 5866 5867 5867 5870 5874 5875 5872 5870 5871 5872 5873 5876 5880
5723 5720 5715 5712 5710 5706 5703 5701 5698 5694 5690 5686 5683 5682 5681 5682 5687 5689 5695 5700 5694 5695 5702 5702 5710 5716 5717 5727 5734 5735 5740 5743 5748 5750 5750 5754 5758 5764 5769 5773 5777 5780 5785 5789 5790 5794 5799 5801 5804 5807 5810 5813 5815 5816 5818 5819 5822 5825 5827 5830 5833 5834 5833 5835 5839 5841 5842 5845 5848 5851 5852 5849 5850 5856 5860 5863 5865 5866 5867 5869 5871 5871 5868 5868 5870 5871 5871 5874
5719 5715 5711 5708 5705 5702 5699 5696 5692 5688 5684 5680 5676 5673 5672 5674 5677 5680 5685 5684 5676 5683 5691 5692 5702 5707 5709 5720 5726 5729 5734 5736 5741 5744 5743 5746 5751 5757 5762 5765 5771 5776 5780 5783 5784 5789 5793 5795 5799 5803 5805 5808 5810 5812 5815 5818 5820 5823 5826 5828 5829 5830 5830 5834 5837 5839 5841 5844 5846 5848 5847 5847 5850 5854 5857 5860 5862 5863 5865 5866 5869 5871 5867 5865 5868 5870 5869 5870
5714 5711 5707 5704 5700 5697 5694 5690 5686 5683 5678 5675 5669 5665 5664 5665 5669 5676 5676 5668 5667 5675 5679 5682 5693 5698 5701 5710 5718 5724 5729 5730 5734 5736 5736 5739 5744 5751 5757 5760 5765 5769 5772 5776 5780 5784 5787 5791 5797 5800 5801 5804 5808 5811 5814 5816 5816 5819 5823 5824 5825 5828 5831 5834 5836 5838 5841 5843 5844 5844 5843 5846 5850 5852 5853 5856 5858 5859 5861 5863 5868 5870 5866 5863 5866 5869 5868 5867
5709 5706 5702 5699 5695 5691 5688 5685 5681 5677 5673 5670 5664 5659 5658 5659 5663 5667 5659 5654 5661 5667 5668 5676 5685 5690 5696 5704 5711 5719 5723 5725 5728 5729 5731 5735 5739 5746 5751 5754 5759 5762 5766 5771 5776 5780 5783 5788 5793 5794 5796 5800 5803 5807 5811 5812 5812 5815 5818 5821 5825 5828 5830 5832 5835 5838 5840 5840 5841 5841 5842 5845 5847 5848 5849 5851 5854 5856 5857 5859 5863 5866 5863 5859 5863 5868 5868 5865
5703 5701 5698 5694 5691 5687 5684 5680 5676 5673 5669 5666 5660 5656 5654 5653 5653 5649 5640 5642 5653 5656 5658 5670 5678 5681 5686 5690 5696 5704 5708 5712 5719 5725 5729 5730 5733 5739 5744 5748 5753 5756 5760 5767 5772 5776 5780 5785 5787 5789 5793 5796 5798 5803 5808 5808 5810 5812 5815 5821 5825 5825 5826 5829 5832 5835 5836 5837 5839 5841 5842 5843 5843 5843 5846 5848 5850 5852 5853 5855 5858 5862 5860 5856 5859 5866 5867 5865
5697 5695 5693 5690 5686 5682 5679 5675 5672 5668 5665 5661 5657 5654 5652 5650 5647 5643 5638 5639 5643 5644 5649 5659 5667 5669 5671 5673 5678 5684 5690 5700 5710 5719 5726 5729 5730 5734 5737 5741 5745 5749 5756 5762 5766 5771 5776 5781 5784 5784 5788 5792 5793 5798 5803 5804 5806 5810 5813 5818 5821 5819 5821 5825 5829 5831 5833 5835 5838 5839 5841 5843 5842 5841 5843 5846 5848 5849 5851 5851 5854 5858 5857 5854 5856 5862 5865 5865
5692 5689 5687 5685 5681 5677 5673 5670 5667 5664 5661 5657 5654 5651 5649 5647 5646 5644 5643 5641 5639 5640 5644 5648 5654 5659 5661 5664 5669 5673 5681 5690 5696 5704 5716 5726 5727 5726 5727 5732 5737 5743 5749 5753 5758 5765 5770 5775 5781 5782 5783 5786 5786 5789 5794 5798 5801 5806 5809 5811 5813 5815 5819 5823 5826 5829 5831 5833 5836 5837 5838 5841 5842 5841 5841 5843 5844 5846 5847 5848 5850 5854 5854 5853 5854 5858 5863 5865
5688 5683 5680 5678 5675 5671 5667 5665 5662 5659 5656 5654 5650 5647 5645 5644 5643 5642 5641 5640 5639 5640 5642 5643 5648 5653 5656 5659 5664 5668 5671 5678 5684 5690 5702 5713 5715 5715 5718 5724 5728 5730 5734 5739 5747 5758 5764 5767 5775 5780 5781 5779 5777 5781 5789 5794 5796 5800 5803 5805 5807 5811 5816 5820 5822 5825 5828 5831 5834 5836 5838 5840 5841 5840 5839 5840 5841 5843 5844 5845 5848 5850 5852 5853 5853 5855 5861 5864
5685 5680 5675 5672 5668 5665 5662 5659 5657 5655 5652 5649 5646 5643 5641 5639 5638 5637 5635 5636 5636 5637 5637 5640 5645 5648 5651 5654 5658 5659 5661 5667 5673 5679 5688 5694 5695 5699 5707 5714 5719 5723 5728 5734 5740 5749 5757 5762 5769 5775 5777 5775 5773 5779 5788 5792 5794 5797 5800 5803 5804 5808 5813 5816 5817 5821 5824 5828 5831 5834 5838 5840 5838 5837 5839 5839 5839 5840 5842 5843 5845 5847 5850 5851 5852 5852 5857 5862
5682 5677 5672 5669 5665 5661 5658 5655 5652 5651 5649 5646 5644 5640 5637 5635 5634 5632 5631 5631 5632 5632 5632 5634 5638 5640 5643 5645 5648 5653 5658 5661 5665 5670 5672 5672 5673 5683 5694 5702 5711 5719 5723 5728 5735 5744 5752 5757 5762 5767 5772 5775 5774 5777 5782 5787 5791 5794 5797 5801 5803 5805 5810 5812 5814 5818 5820 5824 5828 5831 5836 5837 5835 5835 5838 5838 5837 5838 5840 5841 5842 5845 5847 5849 5850 5850 5853 5859
5678 5672 5667 5664 5661 5657 5654 5651 5648 5647 5645 5643 5640 5638 5635 5632 5630 5628 5627 5627 5627 5627 5628 5629 5631 5633 5637 5638 5641 5649 5655 5657 5662 5663 5659 5657 5661 5672 5685 5694 5704 5711 5715 5721 5730 5739 5744 5749 5753 5759 5766 5773 5775 5774 5775 5780 5785 5788 5790 5796 5799 5802 5806 5809 5813 5817 5818 5822 5825 5828 5832 5832 5830 5832 5834 5835 5836 5836 5837 5839 5840 5843 5846 5847 5848 5849 5850 5855
5674 5669 5663 5659 5656 5653 5650 5647 5645 5643 5642 5639 5637 5635 5632 5629 5627 5625 5624 5623 5623 5623 5624 5624 5625 5627 5631 5634 5636 5641 5646 5650 5655 5652 5645 5646 5654 5664 5675 5683 5692 5700 5706 5713 5720 5725 5732 5739 5745 5752 5759 5766 5769 5768 5768 5771 5776 5781 5784 5789 5794 5799 5803 5806 5811 5814 5816 5819 5822 5825 5829 5827 5825 5829 5832 5834 5836 5834 5834 5837 5839 5841 5844 5846 5848 5848 5848 5850
5669 5666 5661 5656 5652 5649 5646 5643 5641 5639 5637 5636 5633 5631 5629 5627 5625 5623 5621 5620 5619 5619 5620 5620 5620 5621 5624 5628 5629 5631 5636 5642 5643 5640 5637 5642 5650 5658 5663 5670 5680 5688 5695 5704 5712 5717 5725 5730 5735 5743 5751 5757 5761 5760 5761 5765 5770 5776 5780 5783 5788 5795 5799 5802 5806 5809 5811 5815 5818 5822 5826 5824 5823 5827 5830 5832 5834 5833 5833 5836 5838 5840 5842 5844 5846 5846 5846 5848
5664 5661 5658 5654 5650 5646 5642 5639 5637 5635 5633 5632 5630 5628 5627 5624 5622 5620 5619 5617 5615 5615 5616 5616 5616 5617 5620 5623 5623 5623 5628 5632 5630 5631 5636 5644 5650 5653 5656 5663 5671 5677 5687 5700 5707 5711 5719 5723 5727 5736 5745 5752 5758 5759 5762 5766 5768 5771 5776 5779 5783 5790 5797 5799 5802 5805 5808 5812 5815 5819 5823 5823 5822 5824 5827 5830 5831 5832 5832 5835 5836 5837 5839 5841 5842 5843 5846 5847
5661 5656 5652 5650 5646 5642 5638 5635 5633 5630 5629 5627 5626 5625 5624 5622 5620 5618 5616 5614 5612 5612 5612 5611 5612 5614 5616 5618 5617 5617 5621 5622 5619 5623 5633 5641 5646 5647 5652 5658 5662 5668 5682 5694 5699 5705 5713 5719 5726 5735 5740 5745 5751 5755 5758 5762 5764 5768 5774 5777 5780 5786 5792 5795 5797 5802 5806 5809 5813 5817 5820 5821 5820 5820 5822 5827 5830 5831 5832 5834 5835 5835 5836 5838 5840 5842 5845 5847
5657 5653 5648 5645 5642 5638 5634 5631 5629 5627 5625 5624 5623 5622 5621 5620 5618 5616 5614 5612 5610 5609 5609 5608 5608 5609 5611 5612 5612 5612 5614 5614 5614 5621 5630 5636 5640 5644 5648 5652 5657 5666 5676 5683 5689 5695 5702 5711 5722 5731 5737 5740 5744 5749 5753 5756 5759 5763 5769 5774 5777 5781 5786 5790 5794 5800 5803 5806 5811 5815 5816 5817 5817 5816 5819 5826 5829 5830 5831 5832 5832 5831 5833 5836 5839 5841 5844 5846
5654 5650 5646 5641 5637 5633 5630 5628 5625 5623 5622 5621 5620 5619 5618 5617 5615 5613 5611 5610 5608 5607 5606 5605 5605 5606 5608 5609 5609 5608 5608 5608 5612 5620 5626 5630 5635 5641 5644 5648 5655 5662 5667 5673 5680 5687 5695 5708 5720 5727 5732 5734 5737 5743 5748 5752 5755 5758 5764 5772 5776 5778 5782 5787 5792 5798 5800 5803 5807 5812 5813 5815 5815 5814 5817 5824 5827 5827 5828 5829 5829 5829 5832 5836 5838 5840 5842 5844
5652 5647 5643 5638 5633 5630 5627 5624 5622 5620 5618 5618 5617 5616 5615 5614 5613 5610 5608 5607 5606 5605 5603 5603 5602 5603 5604 5605 5606 5606 5605 5605 5610 5617 5621 5624 5630 5635 5640 5645 5651 5656 5661 5666 5672 5681 5693 5704 5712 5719 5723 5725 5731 5738 5741 5746 5752 5756 5761 5768 5774 5777 5779 5783 5788 5794 5797 5799 5803 5808 5810 5812 5814 5814 5815 5820 5824 5824 5823 5825 5827 5829 5831 5833 5837 5840 5841 5842
5649 5645 5641 5636 5630 5626 5623 5620 5618 5617 5615 5614 5614 5612 5612 5612 5610 5608 5606 5605 5604 5603 5601 5600 5600 5600 5602 5602 5603 5604 5602 5603 5607 5612 5615 5619 5625 5629 5635 5642 5647 5652 5658 5661 5665 5676 5686 5692 5699 5709 5716 5722 5730 5735 5738 5743 5747 5749 5752 5758 5766 5773 5777 5780 5784 5789 5793 5795 5799 5804 5805 5808 5812 5812 5812 5816 5819 5819 5819 5822 5826 5827 5827 5830 5834 5837 5838 5839
5647 5643 5638 5633 5628 5624 5620 5618 5616 5614 5613 5612 5611 5610 5610 5609 5607 5605 5604 5603 5602 5601 5599 5598 5598 5598 5599 5600 5600 5601 5600 5601 5603 5607 5611 5616 5621 5626 5632 5637 5642 5648 5654 5658 5664 5672 5678 5683 5692 5700 5709 5720 5728 5730 5734 5738 5738 5741 5746 5753 5761 5770 5776 5780 5782 5785 5790 5793 5796 5799 5801 5803 5808 5810 5810 5812 5814 5815 5817 5821 5823 5824 5825 5829 5832 5834 5835 5837